Погода в Теплом

Россия / Липецкая область     52°54′59″N   39°11′58″E
темп.,
°C
ветер,
м/с
пор.,
м/с
влажн.,
%
обл.,
%
осадки,
мм/ч
давл.,
гПа
погр.,
м
4 марта, чт
чт400:00−1з61191100 0.1 1014701
03:00−2зюз6139099 0.1 1012477
06:00−2зюз71492100 0.0 1010447
09:00−1зюз8168898 0.0 1008535
12:000зюз8148488 0.0 1006869
15:00+1зюз7129089 0.0 1004926
18:00+1зюз61390100 0.0 1003730
21:00+1зюз51197100 0.1 1002482
5 марта, пт
пт500:000з4998100 0.3 1002509
03:00−2зсз4896100 0.3 1003321
06:00−4с2595100 0.2 1005146
09:00−4ссз2494100 0.3 1007200
12:00−3ссз228773 0.0 1009346
15:00−2зсз238573 0.0 1010539
18:00−4сз2392100 0.0 101130
21:00−6ссз239199 0.0 101440
6 марта, сб
сб600:00−7с3491100 0.0 101587
03:00−8ссв2391100 0.0 101635
06:00−10с228888 0.0 101622
09:00−9с238744 0.0 101794
12:00−6ссз22780 0.0 1017284
15:00−5с12772 0.0 1016433
18:00−8св128938 0.0 101721
21:00−9ссв119129 0.0 101821
7 марта, вс
вс700:00−9зсз119591 0.1 101821
03:00−10зюз349585 0.1 101773
06:00−10юз6128623 0.0 1015325
09:00−6юз9177862 0.0 1012699
12:00−4юз111875100 0.0 10071122
15:00−3юз122092100 0.4 10031422
18:00−2зюз111986100 0.4 9991215
21:00−5ссз101590100 2.1 1000862
8 марта, пн
пн800:00−5зюз51087100 0.1 1001346
03:00−7зюз6148466 0.1 1001428
06:00−7з7158569 0.0 1002800
09:00−8з7128572 0.0 1004889
12:00−7зсз798193 0.1 10071059
15:00−7сз687897 0.1 10091115
18:00−9зсз358784 0.1 101198
21:00−11зсз349042 0.1 101364